Station LAPW1 - 9442396 - La Push, WA Image indicating link to RSS feed of recent meteorological observations for station LAPW1


Conditions at LAPW1 as of
(4:36 am PDT)
1136 GMT on 07/20/2024:
     

Click on the graph icon in the table below to see a time series plot of the last five days of that observation.

5-day plot - Wind Direction Wind Direction (WDIR):ENE ( 60 deg true )
5-day plot - Wind Speed Wind Speed (WSPD): 4.1 kts
5-day plot - Wind Gust Wind Gust (GST): 5.1 kts
5-day plot - Atmospheric Pressure Atmospheric Pressure (PRES):30.16 in
5-day plot - Air Temperature Air Temperature (ATMP): 52.9 °F
5-day plot - Water Temperature Water Temperature (WTMP): 58.3 °F
5-day plot - Wind Chill Wind Chill (CHILL): 51.8 °F
5-day plot - Wind Speed at 10 Meters Wind Speed at 10 meters (WSPD10M): 3.9 kts
5-day plot - Wind Speed at 20 Meters Wind Speed at 20 meters (WSPD20M): 3.9 kts
5-day plot -  Wind Speed, Wind Gust and Atmospheric Pressure Combined plot of Wind Speed, Gust, and Air Pressure
NOS Water Level Observation Network Water Level
Previous observations
TIME
(PDT)
5-day plot - Wind Direction
WDIR
 
5-day plot - Wind Speed
WSPD
kts
5-day plot - Wind Gust
GST
kts
5-day plot - Wave Height
WVHT
ft
5-day plot - Dominant Wave Period
DPD
sec
5-day plot - Average Wave Period
APD
sec
5-day plot - Mean Wave Direction
MWD
 
5-day plot - Atmospheric Pressure
PRES
in
5-day plot - Pressure Tendency
PTDY
in
5-day plot - Air Temperature
ATMP
°F
5-day plot - Water Temperature
WTMP
°F
5-day plot - Dew Point
DEWP
°F
5-day plot - Salinity
SAL
psu
5-day plot - Visibility
VIS
nmi
5-day plot - Tide (above MLLW)
TIDE
ft
2024-07-20 04:30 amENE 2.9 4.1----30.16- 52.9 57.2----
2024-07-20 04:24 amENE 1.9 2.9----30.16- 53.1 55.8----
2024-07-20 04:18 amENE 1.9 2.9----30.16- 53.2 54.9----
2024-07-20 04:12 amENE 2.9 4.1----30.16- 53.4 54.0----
2024-07-20 04:06 amENE 2.9 4.1----30.16- 53.6 53.8----
2024-07-20 04:00 amENE 2.9 5.1----30.16-0.01 53.8 53.6----
2024-07-20 03:54 amENE 4.1 4.1----30.16- 54.0 53.6----
2024-07-20 03:48 amENE 2.9 4.1----30.17- 54.0 53.4----
2024-07-20 03:42 amENE 1.9 2.9----30.17- 54.0 53.4----
2024-07-20 03:36 amENE 1.9 2.9----30.17- 54.1 53.4----
2024-07-20 03:30 am NE 1.9 2.9----30.17- 54.3 53.4----
2024-07-20 03:24 amNNE 1.9 4.1----30.17- 54.5 53.4----
2024-07-20 03:18 amNNE 2.9 4.1----30.17- 54.3 53.4----
2024-07-20 03:12 am NE 1.9 2.9----30.17- 54.7 53.2----
2024-07-20 03:06 am NE 1.9 4.1----30.17- 54.7 53.2----
2024-07-20 03:00 am NE 2.9 4.1----30.17+0.00 54.5 53.2----
2024-07-20 02:54 am NE 1.9 2.9----30.17- 54.3 53.2----
2024-07-20 02:48 am NE 1.9 2.9----30.17- 54.7 53.2----
2024-07-20 02:42 am NE 1.0 1.9----30.17- 55.2 53.2----
2024-07-20 02:36 am NE 1.0 1.9----30.17- 55.6 53.2----
2024-07-20 02:30 am NW 1.9 2.9----30.17- 55.4 53.2----
2024-07-20 02:24 amNNW 1.9 2.9----30.17- 55.6 53.2----
2024-07-20 02:18 amNNW 2.9 2.9----30.17- 55.8 53.2----
2024-07-20 02:12 amNNW 2.9 4.1----30.17- 55.6 53.2----
2024-07-20 02:06 am NW 2.9 5.1----30.17- 55.6 53.2----
2024-07-20 02:00 am NW 2.9 4.1----30.17+0.00 55.6 53.2----
2024-07-20 01:54 amWNW 2.9 4.1----30.17- 55.8 53.2----
2024-07-20 01:48 am NW 2.9 4.1----30.17- 55.6 53.2----
2024-07-20 01:42 am NW 2.9 4.1----30.17- 55.6 53.2----
2024-07-20 01:36 am NW 2.9 4.1----30.17- 55.6 53.2----
2024-07-20 01:30 amNNW 2.9 4.1----30.17- 55.6 53.2----
2024-07-20 01:24 am NW 2.9 4.1----30.17- 55.6 53.2----
2024-07-20 01:18 am NW 2.9 4.1----30.17- 55.4 53.2----
2024-07-20 01:12 am NW 2.9 4.1----30.18- 55.4 53.2----
2024-07-20 01:06 am NW 2.9 4.1----30.18- 55.6 53.2----
2024-07-20 01:00 am NW 2.9 4.1----30.18+0.00 55.6 53.2----
2024-07-20 12:54 am NW 2.9 4.1----30.18- 55.6 53.2----
2024-07-20 12:48 amWNW 2.9 4.1----30.18- 55.6 53.2----
2024-07-20 12:42 am- 0.0 1.9----30.17- 55.0 53.2----
2024-07-20 12:36 am- 0.0 1.0----30.17- 55.2 53.2----
2024-07-20 12:30 am- 0.0 1.0----30.17- 54.9 53.2----
2024-07-20 12:24 amNNE 1.0 1.0----30.17- 54.9 53.4----
2024-07-20 12:18 am- 0.0 0.0----30.17- 55.2 53.4----
2024-07-20 12:12 am- 0.0 1.9----30.17- 55.6 53.4----
2024-07-20 12:06 am NW 1.9 2.9----30.17- 55.6 53.4----
2024-07-20 12:00 amNNW 2.9 4.1----30.17+0.00 55.8 53.4----
2024-07-19 11:54 pmNNW 2.9 5.1----30.17- 55.8 53.4----
2024-07-19 11:48 pm NW 4.1 5.1----30.18- 55.8 53.4----
2024-07-19 11:42 pmWNW 5.1 6.0----30.18- 55.8 53.4----
2024-07-19 11:36 pmWNW 4.1 6.0----30.18- 55.6-----
2024-07-19 11:30 pmWNW 2.9 4.1----30.18- 55.6-----
2024-07-19 11:24 pm NW 2.9 5.1----30.18- 55.6-----
2024-07-19 11:18 pm NW 5.1 6.0----30.18- 55.6-----
2024-07-19 11:12 pm NW 5.1 6.0----30.18- 55.6-----
2024-07-19 11:06 pm NW 5.1 6.0----30.18- 55.4-----
2024-07-19 11:00 pm NW 5.1 6.0----30.18- 55.8-----
2024-07-19 10:54 pm NW 4.1 5.1----30.18- 55.8-----
2024-07-19 10:48 pm NW 5.1 6.0----30.18- 55.6-----
2024-07-19 10:42 pm NW 6.0 6.0----30.18- 55.6-----
2024-07-19 10:36 pmWNW 5.1 5.1----30.18- 55.9 53.4----
2024-07-19 10:30 pmWNW 2.9 5.1----30.18- 55.9 53.4----
2024-07-19 10:24 pmWNW 4.1 5.1----30.18- 55.8 53.4----
2024-07-19 10:18 pmWNW 4.1 5.1----30.18- 55.8 53.4----
2024-07-19 10:12 pm NW 4.1 5.1----30.18- 55.8 53.4----
2024-07-19 10:06 pm NW 2.9 5.1----30.18- 55.8 53.4----
2024-07-19 10:00 pm NW 2.9 5.1----30.18-0.01 56.1 53.2----
2024-07-19 09:54 pm NW 2.9 4.1----30.18- 56.1 53.2----
2024-07-19 09:48 pm NW 4.1 6.0----30.18- 56.1 53.2----
2024-07-19 09:42 pmWNW 4.1 6.0----30.18- 56.1 53.2----
2024-07-19 09:36 pmWNW 5.1 6.0----30.18- 56.1 53.2----
2024-07-19 09:30 pm NW 5.1 6.0----30.18- 56.1 53.2----
2024-07-19 09:24 pmWNW 4.1 5.1----30.18- 56.3 53.2----
2024-07-19 09:18 pm NW 4.1 5.1----30.18- 56.3 53.1----
2024-07-19 09:12 pm NW 4.1 6.0----30.18- 56.3 53.1----
2024-07-19 09:06 pm NW 2.9 5.1----30.17- 56.3 53.1----
2024-07-19 09:00 pm NW 5.1 7.0----30.17-0.02 56.5 53.1----
2024-07-19 08:54 pm NW 5.1 6.0----30.18- 56.5 53.1----
2024-07-19 08:48 pm NW 4.1 6.0----30.17- 56.7 53.1----
2024-07-19 08:42 pm NW 4.1 6.0----30.17- 56.7 52.9----
2024-07-19 08:36 pmWNW 4.1 5.1------ 56.8 52.9----
2024-07-19 08:30 pmWNW 1.9 2.9------ 56.7 52.9----
2024-07-19 08:24 pmWNW 2.9 5.1------ 56.7 52.9----
2024-07-19 08:18 pmNNW 2.9 5.1------ 56.5 52.9----
2024-07-19 08:12 pm NW 4.1 6.0------ 56.5 52.9----
2024-07-19 08:06 pmWNW 5.1 6.0------ 56.5 52.9----
2024-07-19 08:00 pmWNW 4.1 5.1------ 56.5 52.9----
2024-07-19 07:54 pmWNW 4.1 5.1------ 56.7 53.1----
2024-07-19 07:48 pmWNW 2.9 4.1------ 56.7 53.1----
2024-07-19 07:42 pmWNW 2.9 5.1------ 56.5 52.9----
2024-07-19 07:36 pm NW 2.9 5.1----30.18- 56.5 52.9----
2024-07-19 07:30 pm NW 5.1 5.1----30.19- 56.3 52.9----
2024-07-19 07:24 pm NW 2.9 4.1----30.18- 56.1 52.9----
2024-07-19 07:18 pm NW 4.1 5.1----30.19- 56.1 52.9----
2024-07-19 07:12 pm NW 4.1 5.1----30.19- 55.9 52.9----
2024-07-19 07:06 pmWNW 4.1 5.1----30.19- 56.1 52.9----
2024-07-19 07:00 pm NW 5.1 5.1----30.19-0.03 56.3 52.9----
2024-07-19 06:54 pmWNW 5.1 5.1----30.19- 56.3 52.9----
2024-07-19 06:48 pmWNW 4.1 5.1----30.19- 56.5 52.9----
2024-07-19 06:42 pmWNW 4.1 5.1----30.19- 56.5 52.7----
2024-07-19 06:36 pm W 4.1 5.1----30.19- 56.3-----
2024-07-19 06:30 pmWNW 4.1 5.1----30.19- 56.3-----
2024-07-19 06:24 pmWNW 4.1 5.1----30.19- 56.5-----
2024-07-19 06:18 pmWNW 4.1 5.1----30.19- 56.5-----
2024-07-19 06:12 pmWNW 4.1 5.1----30.19- 56.5-----
2024-07-19 06:06 pmWNW 4.1 5.1----30.19- 56.3-----
2024-07-19 06:00 pm NW 5.1 5.1----30.19- 56.5-----
2024-07-19 05:54 pm NW 4.1 5.1----30.19- 56.5-----
2024-07-19 05:48 pm NW 4.1 5.1----30.20- 56.7-----
2024-07-19 05:42 pmWNW 4.1 5.1----30.20- 56.5-----
2024-07-19 05:36 pm W 2.9 5.1----30.20-- 52.7----
2024-07-19 05:30 pmWNW 2.9 4.1----30.20-- 52.7----
2024-07-19 05:24 pmWNW 4.1 4.1----30.21-- 52.7----
2024-07-19 05:18 pmWNW 2.9 5.1----30.21-- 52.7----
2024-07-19 05:12 pmWNW 4.1 5.1----30.21-- 52.7----
2024-07-19 05:06 pmWNW 4.1 5.1----30.21-- 52.7----
2024-07-19 05:00 pmWNW 4.1 5.1----30.21-0.01- 52.7----
2024-07-19 04:54 pmWNW 2.9 5.1----30.21-- 52.7----
2024-07-19 04:48 pmWNW 4.1 4.1----30.21-- 52.7----
2024-07-19 04:42 pmWNW 2.9 5.1----30.21-- 52.7----
2024-07-19 04:36 pmWNW 2.9 4.1----30.22- 55.9 52.7----
2024-07-19 04:30 pmWNW 4.1 5.1----30.22- 56.1 52.7----
2024-07-19 04:24 pm W 2.9 4.1----30.22- 56.1 52.7----
2024-07-19 04:18 pmWNW 2.9 4.1----30.22- 55.9 52.7----
2024-07-19 04:12 pm W 2.9 4.1----30.22- 56.3 52.7----
2024-07-19 04:06 pm W 1.9 4.1----30.22- 56.1 52.7----
2024-07-19 04:00 pm W 2.9 4.1----30.22+0.00 56.1 52.7----
2024-07-19 03:54 pmWNW 2.9 4.1----30.22- 55.9 52.7----
2024-07-19 03:48 pmWNW 2.9 5.1----30.22- 55.9 52.7----
2024-07-19 03:42 pmWNW 4.1 5.1----30.22- 55.9 52.7----
2024-07-19 03:36 pmWNW 4.1 4.1------------
2024-07-19 03:30 pm W 4.1 4.1------------
2024-07-19 03:24 pm W 2.9 4.1------------
2024-07-19 03:18 pm W 4.1 5.1------------
2024-07-19 03:12 pm W 4.1 4.1------------
2024-07-19 03:06 pm W 4.1 4.1------------
2024-07-19 03:00 pm W 2.9 5.1------------
2024-07-19 02:54 pm W 4.1 5.1------------
2024-07-19 02:48 pm W 4.1 5.1------------
2024-07-19 02:42 pm W 4.1 5.1------------
2024-07-19 02:36 pm W 4.1 5.1----30.22- 56.5 52.9----
2024-07-19 02:30 pmSSW 2.9 4.1----30.22- 56.3 52.7----
2024-07-19 02:24 pmSSW 4.1 5.1----30.22- 56.1 52.7----
2024-07-19 02:18 pmSSW 2.9 5.1----30.22- 56.1 52.7----
2024-07-19 02:12 pmSSW 4.1 5.1----30.22- 56.1 52.7----
2024-07-19 02:06 pmSSW 4.1 5.1----30.22- 56.3 52.7----
2024-07-19 02:00 pmSSW 4.1 5.1----30.22+0.01 55.9 52.7----
2024-07-19 01:54 pmSSW 5.1 7.0----30.23- 56.1 52.7----
2024-07-19 01:48 pmSSW 5.1 6.0----30.23- 56.5 52.7----
2024-07-19 01:42 pmSSW 4.1 6.0----30.23- 56.7 52.7----
2024-07-19 01:36 pm S 5.1 7.0----30.23- 57.0 52.7----
2024-07-19 01:30 pmSSW 5.1 6.0----30.23- 57.2 52.7----
2024-07-19 01:24 pmSSW 5.1 6.0----30.23- 57.4 52.7----
2024-07-19 01:18 pmSSW 5.1 7.0----30.23- 57.4 52.7----
2024-07-19 01:12 pmSSW 5.1 6.0----30.23- 57.4 52.7----
2024-07-19 01:06 pmSSW 5.1 8.0----30.23- 57.4 52.7----
2024-07-19 01:00 pmSSW 6.0 8.0----30.23+0.02 57.7 52.7----
2024-07-19 12:54 pmSSW 5.1 7.0----30.23- 57.7 52.7----
2024-07-19 12:48 pm S 6.0 8.0----30.23- 57.7 52.7----
2024-07-19 12:42 pmSSW 6.0 8.0----30.23- 57.9 52.7----
2024-07-19 12:36 pm S 5.1 7.0----30.23- 57.9 52.7----
2024-07-19 12:30 pmSSW 5.1 7.0----30.23- 58.3 52.7----
2024-07-19 12:24 pm S 5.1 7.0----30.23- 58.3 52.7----
2024-07-19 12:18 pmSSW 6.0 8.9----30.22- 58.3 52.7----
2024-07-19 12:12 pm S 7.0 9.9----30.22- 58.3 52.7----
2024-07-19 12:06 pm S 8.0 8.9----30.22- 58.3 52.7----
2024-07-19 12:00 pm S 7.0 8.9----30.22+0.01 58.1 52.5----
2024-07-19 11:54 am S 7.0 8.9----30.22- 58.3 52.5----
2024-07-19 11:48 am S 7.0 8.9----30.22- 58.3 52.5----
2024-07-19 11:42 am S 7.0 8.9----30.22- 58.3 52.5----
2024-07-19 11:36 am S 6.0 8.9----30.22- 58.3 52.5----
2024-07-19 11:30 am S 6.0 8.0----30.22- 58.5 52.5----
2024-07-19 11:24 am S 7.0 9.9----30.22- 58.3 52.5----
2024-07-19 11:18 am S 7.0 9.9----30.22- 58.3 52.5----
2024-07-19 11:12 am S 7.0 8.9----30.22- 58.5 52.5----
2024-07-19 11:06 am S 8.0 8.9----30.22- 58.8 52.5----
2024-07-19 11:00 am S 7.0 9.9----30.21+0.02 59.0 52.5----
2024-07-19 10:54 am S 7.0 9.9----30.21- 59.2 52.5----
2024-07-19 10:48 am S 8.9 12.0----30.21- 59.4 52.5----
2024-07-19 10:42 am S 8.9 11.1----30.21- 59.0 52.5----
2024-07-19 10:36 am S 8.9 12.0----30.21- 59.2 52.5----
2024-07-19 10:30 am S 8.9 12.0----30.21- 59.5 52.5----
2024-07-19 10:24 am S 8.9 12.0----30.21- 59.5 52.3----
2024-07-19 10:18 am S 8.9 11.1----30.20- 59.4 52.3----
2024-07-19 10:12 am S 8.0 11.1----30.20- 59.0 52.3----
2024-07-19 10:06 am S 7.0 9.9----30.21- 59.0 52.2----
2024-07-19 10:00 am S 8.0 11.1----30.21+0.03 59.0 52.2----
2024-07-19 09:54 am S 7.0 8.9----30.21- 59.0 52.2----
2024-07-19 09:48 am S 8.0 8.9----30.20- 59.0 52.0----
2024-07-19 09:42 am S 5.1 11.1----30.20- 59.0 52.0----
2024-07-19 09:36 am S 7.0 8.9----30.20- 58.6 52.0----
2024-07-19 09:30 am S 6.0 8.0----30.20- 58.5 52.0----
2024-07-19 09:24 am SE 2.9 6.0----30.20- 58.5 52.0----
2024-07-19 09:18 am E 1.9 6.0----30.20- 57.4 51.8----
2024-07-19 09:12 am SE 4.1 8.0----30.20- 57.4 52.0----
2024-07-19 09:06 am SE 5.1 7.0----30.20- 57.0 52.0----
2024-07-19 09:00 amSSE 6.0 8.9----30.20+0.04 57.0 52.0----
2024-07-19 08:54 am SE 5.1 9.9----30.20- 56.8 52.2----
2024-07-19 08:48 amSSE 5.1 8.0----30.20- 56.7 52.3----
2024-07-19 08:42 amSSE 6.0 8.9----30.20- 56.7 52.3----
2024-07-19 08:36 amSSE 5.1 8.0----30.20- 57.0 52.3----
2024-07-19 08:30 am S 4.1 5.1----30.20- 56.7 52.5----
2024-07-19 08:24 amSSE 2.9 5.1----30.20- 56.7 52.7----
2024-07-19 08:18 amSSE 4.1 6.0----30.20- 56.5 52.9----
2024-07-19 08:12 am S 5.1 6.0----30.20- 56.7 53.4----
2024-07-19 08:06 am S 4.1 7.0----30.19- 56.7 53.8----
2024-07-19 08:00 amSSE 2.9 5.1----30.19+0.04 56.7 54.5----
2024-07-19 07:54 am SE 2.9 7.0----30.19- 56.5 55.4----
2024-07-19 07:48 am S 2.9 5.1----30.19- 56.5 56.5----
2024-07-19 07:42 am S 5.1 6.0----30.19- 56.5 57.4----
2024-07-19 07:36 am S 4.1 5.1----30.19- 56.3 58.1----
2024-07-19 07:30 amSSE 5.1 6.0----30.19- 56.3 58.6----
2024-07-19 07:24 am S 4.1 5.1----30.19- 56.1 59.0----
2024-07-19 07:18 am S 4.1 6.0----30.19- 56.1 59.4----
2024-07-19 07:12 am S 2.9 5.1----30.18- 56.1 59.5----
2024-07-19 07:06 am S 4.1 5.1----30.18- 56.1 59.5----
2024-07-19 07:00 amSSE 4.1 4.1----30.18+0.04 56.1 59.7----
2024-07-19 06:54 amSSE 2.9 5.1----30.18- 56.1 59.7----
2024-07-19 06:48 amSSE 4.1 5.1----30.18- 56.1 59.7----
2024-07-19 06:42 am S 2.9 5.1----30.18- 56.1 59.9----
2024-07-19 06:36 am SE 1.9 2.9----30.17- 55.9 59.9----
2024-07-19 06:30 amSSE 1.9 4.1----30.17- 55.9 59.9----
2024-07-19 06:24 am SE 1.0 1.9----30.17- 55.8 59.9----
2024-07-19 06:18 amESE 1.9 2.9----30.17- 55.8 59.9----
2024-07-19 06:12 am E 1.0 2.9----30.16- 55.8 59.9----
2024-07-19 06:06 am E 1.0 4.1----30.16- 55.8 59.9----
2024-07-19 06:00 am E 1.9 2.9----30.16+0.01 55.8 59.9----
2024-07-19 05:54 am E 1.9 4.1----30.16- 55.8 59.9----
2024-07-19 05:48 am E 1.9 4.1----30.16- 55.9 59.9----
2024-07-19 05:42 am E 1.9 2.9----30.16- 55.9 59.7----
2024-07-19 05:36 am E 1.9 2.9----30.16- 55.9 59.9----
2024-07-19 05:30 amENE 1.9 1.9----30.16- 55.9 59.7----
2024-07-19 05:24 am E 1.0 4.1----30.15- 56.1 59.7----
2024-07-19 05:18 am E 1.9 2.9----30.15- 56.3 59.7----
2024-07-19 05:12 amESE 1.9 6.0----30.15- 56.3 59.7----
2024-07-19 05:06 amSSE 2.9 6.0----30.15- 56.3 59.5----
2024-07-19 05:00 amSSE 4.1 6.0----30.15+0.00 56.5 59.4----
2024-07-19 04:54 am SE 1.0 2.9----30.15- 56.5 59.4----